Weather History for Waseca, MN

Change the Weather History Date:

Sunday, January 13, 2013

  Actual Average Record
Temperature  
Mean Temperature 10 °F -  
Max Temperature 14 °F 20 °F 43 °F (1915)
Min Temperature 5 °F 1 °F -31 °F (1916)
Degree Days  
Heating Degree Days 56    
Moisture  
Dew Point 0 °F    
Average Humidity 69    
Maximum Humidity 78    
Minimum Humidity 62    
Precipitation  
Precipitation 0.00 in - - ()
Sea Level Pressure  
Sea Level Pressure 30.13 in    
Wind  
Wind Speed 11 mph (WNW)    
Max Wind Speed 16 mph    
Max Gust Speed 18 mph    
Visibility 10 miles    
Events Snow    
Averages and records for this station are not official NWS values.
T = Trace of Precipitation, MM = Missing Value Source: NWS Daily Summary

Daily Weather History Graph

Daily Weather History Graph

Search for Another Location

Airport:

Trip Planner

Search our weather history database for the weather conditions in past years. The results will help you decide how hot, cold, wet, or windy it might be!

Date:

Astronomy

Jan. 13, 2013 Rise Set
Actual Time 7:46 AM CST 4:59 PM CST
Civil Twilight 7:14 AM CST 5:31 PM CST
Nautical Twilight 6:38 AM CST 6:07 PM CST
Astronomical Twilight 6:04 AM CST 6:42 PM CST
Moon 8:39 AM CST (1/13) 7:46 PM CST (1/13)
Length of Visible Light 10h 17m
Length of Day
9h 12m
Waxing Crescent, 5% of the Moon is Illuminated
Jan 13
Waxing Crescent
Jan 18
First Quarter
Jan 26
Full
Feb 3
Last Quarter
Feb 10
New

Hourly Weather History & Observations

Time (CST) Temp. Windchill Dew Point Humidity Pressure Visibility Wind Dir Wind Speed Gust Speed Precip Events Conditions
12:14 AM 8.6 °F -6.3 °F -0.4 °F 67% 30.06 in 7.0 mi WNW 11.5 mph - N/A   Mostly Cloudy
12:34 AM 8.6 °F -7.7 °F -0.4 °F 67% 30.05 in 10.0 mi WNW 13.8 mph - N/A   Scattered Clouds
12:54 AM 8.6 °F -7.0 °F -0.4 °F 67% 30.06 in 10.0 mi NW 12.7 mph - N/A   Mostly Cloudy
1:14 AM 8.6 °F -7.7 °F -0.4 °F 67% 30.05 in 7.0 mi WNW 13.8 mph 17.3 mph N/A   Mostly Cloudy
1:34 AM 8.6 °F -7.0 °F -0.4 °F 67% 30.05 in 7.0 mi WNW 12.7 mph - N/A   Overcast
1:54 AM 6.8 °F -9.3 °F -2.2 °F 67% 30.05 in 10.0 mi WNW 12.7 mph - N/A   Scattered Clouds
2:14 AM 6.8 °F -8.6 °F -2.2 °F 67% 30.06 in 10.0 mi WNW 11.5 mph - N/A   Scattered Clouds
2:34 AM 5.0 °F -8.1 °F -2.2 °F 72% 30.06 in 10.0 mi NW 8.1 mph - N/A   Scattered Clouds
2:54 AM 5.0 °F -10.0 °F -2.2 °F 72% 30.06 in 10.0 mi WNW 10.4 mph - N/A   Scattered Clouds
3:15 AM 5.0 °F -9.1 °F -2.2 °F 72% 30.05 in 10.0 mi WNW 9.2 mph - N/A   Scattered Clouds
3:34 AM 5.0 °F -8.1 °F -2.2 °F 72% 30.06 in 10.0 mi WNW 8.1 mph - N/A   Clear
3:54 AM 5.0 °F -10.0 °F -2.2 °F 72% 30.05 in 10.0 mi WNW 10.4 mph - N/A   Clear
4:14 AM 5.0 °F -9.1 °F -2.2 °F 72% 30.05 in 10.0 mi WNW 9.2 mph - N/A   Clear
4:34 AM 5.0 °F -10.8 °F -0.4 °F 78% 30.04 in 10.0 mi WNW 11.5 mph - N/A   Scattered Clouds
4:54 AM 5.0 °F -10.0 °F -0.4 °F 78% 30.05 in 10.0 mi WNW 10.4 mph - N/A   Mostly Cloudy
5:14 AM 5.0 °F -9.1 °F -4.0 °F 66% 30.05 in 10.0 mi NW 9.2 mph - N/A   Scattered Clouds
5:34 AM 5.0 °F -9.1 °F -4.0 °F 66% 30.06 in 10.0 mi WNW 9.2 mph - N/A   Clear
5:54 AM 5.0 °F -10.0 °F -4.0 °F 66% 30.07 in 10.0 mi NW 10.4 mph - N/A   Scattered Clouds
6:14 AM 5.0 °F -10.0 °F -4.0 °F 66% 30.09 in 10.0 mi WNW 10.4 mph - N/A   Scattered Clouds
6:34 AM 5.0 °F -8.1 °F -4.0 °F 66% 30.09 in 10.0 mi WNW 8.1 mph - N/A   Clear
6:55 AM 5.0 °F -9.1 °F -4.0 °F 66% 30.10 in 10.0 mi NW 9.2 mph - N/A   Clear
7:14 AM 5.0 °F -8.1 °F -4.0 °F 66% 30.11 in 10.0 mi NW 8.1 mph - N/A   Clear
7:34 AM 5.0 °F -9.1 °F -4.0 °F 66% 30.11 in 10.0 mi NW 9.2 mph - N/A   Clear
7:54 AM 5.0 °F -5.6 °F -4.0 °F 66% 30.12 in 10.0 mi NW 5.8 mph - N/A   Clear
8:15 AM 5.0 °F -6.9 °F -4.0 °F 66% 30.13 in 10.0 mi WNW 6.9 mph - N/A   Clear
8:34 AM 5.0 °F -8.1 °F -2.2 °F 72% 30.14 in 10.0 mi WNW 8.1 mph - N/A   Clear
9:14 AM 6.8 °F -8.6 °F -0.4 °F 72% 30.16 in 10.0 mi West 11.5 mph - N/A   Mostly Cloudy
9:34 AM 8.6 °F -5.5 °F -0.4 °F 67% 30.14 in 10.0 mi WNW 10.4 mph - N/A   Mostly Cloudy
9:55 AM 8.6 °F -5.5 °F -0.4 °F 67% 30.14 in 10.0 mi West 10.4 mph - N/A   Overcast
10:15 AM 8.6 °F -7.0 °F -0.4 °F 67% 30.13 in 10.0 mi WNW 12.7 mph - N/A   Mostly Cloudy
10:34 AM 8.6 °F -7.0 °F 1.4 °F 73% 30.13 in 5.0 mi WNW 12.7 mph - N/A Snow Light Snow
10:54 AM 10.4 °F -4.8 °F 1.4 °F 67% 30.12 in 5.0 mi WNW 12.7 mph - N/A Snow Light Snow
11:14 AM 10.4 °F -5.4 °F 1.4 °F 67% 30.11 in 5.0 mi WNW 13.8 mph - N/A   Haze
11:34 AM 10.4 °F -5.4 °F 1.4 °F 67% 30.10 in 5.0 mi West 13.8 mph - N/A   Haze
11:55 AM 10.4 °F -4.1 °F 1.4 °F 67% 30.10 in 7.0 mi WNW 11.5 mph - N/A   Overcast
12:15 PM 10.4 °F -5.4 °F 1.4 °F 67% 30.10 in 10.0 mi West 13.8 mph - N/A   Mostly Cloudy
12:35 PM 10.4 °F -5.4 °F 1.4 °F 67% 30.10 in 10.0 mi West 13.8 mph - N/A   Overcast
12:54 PM 10.4 °F -6.0 °F 1.4 °F 67% 30.10 in 10.0 mi West 15.0 mph - N/A   Overcast
1:14 PM 12.2 °F -3.1 °F 3.2 °F 67% 30.10 in 10.0 mi West 13.8 mph - N/A   Overcast
1:35 PM 12.2 °F -1.8 °F 3.2 °F 67% 30.11 in 10.0 mi West 11.5 mph - N/A   Overcast
1:55 PM 12.2 °F -3.1 °F 3.2 °F 67% 30.11 in 7.0 mi West 13.8 mph - N/A   Overcast
2:12 PM 12.2 °F -3.1 °F 3.2 °F 67% 30.11 in 10.0 mi WNW 13.8 mph 18.4 mph N/A   Overcast
2:35 PM 14.0 °F -1.4 °F 3.2 °F 62% 30.12 in 10.0 mi West 15.0 mph 18.4 mph N/A   Overcast
2:54 PM 12.2 °F -2.5 °F 3.2 °F 67% 30.12 in 10.0 mi WNW 12.7 mph - N/A   Mostly Cloudy
3:14 PM 12.2 °F -3.1 °F 3.2 °F 67% 30.13 in 10.0 mi West 13.8 mph 18.4 mph N/A   Overcast
3:34 PM 14.0 °F -0.8 °F 5.0 °F 67% 30.13 in 10.0 mi West 13.8 mph - N/A   Overcast
3:54 PM 14.0 °F 0.5 °F 5.0 °F 67% 30.14 in 10.0 mi WNW 11.5 mph - N/A   Overcast
4:15 PM 12.2 °F -4.3 °F 3.2 °F 67% 30.15 in 10.0 mi West 16.1 mph - N/A   Scattered Clouds
4:34 PM 12.2 °F -3.1 °F 3.2 °F 67% 30.16 in 10.0 mi West 13.8 mph - N/A   Clear
4:55 PM 12.2 °F -2.5 °F 3.2 °F 67% 30.17 in 10.0 mi WNW 12.7 mph - N/A   Clear
5:14 PM 10.4 °F -4.8 °F 1.4 °F 67% 30.17 in 10.0 mi West 12.7 mph - N/A   Clear
5:34 PM 10.4 °F -4.8 °F 1.4 °F 67% 30.18 in 10.0 mi WNW 12.7 mph - N/A   Clear
5:54 PM 10.4 °F -4.8 °F 1.4 °F 67% 30.18 in 10.0 mi WNW 12.7 mph - N/A   Clear
6:15 PM 8.6 °F -7.0 °F 1.4 °F 73% 30.19 in 10.0 mi WNW 12.7 mph - N/A   Clear
6:34 PM 8.6 °F -4.7 °F 1.4 °F 73% 30.19 in 10.0 mi WNW 9.2 mph - N/A   Clear
6:55 PM 8.6 °F -3.7 °F 1.4 °F 73% 30.20 in 10.0 mi WNW 8.1 mph - N/A   Clear
7:14 PM 8.6 °F -2.6 °F 1.4 °F 73% 30.20 in 10.0 mi WNW 6.9 mph - N/A   Clear
7:34 PM 8.6 °F -2.6 °F 1.4 °F 73% 30.21 in 10.0 mi West 6.9 mph - N/A   Clear
7:55 PM 8.6 °F 0.1 °F 1.4 °F 73% 30.21 in 10.0 mi West 4.6 mph - N/A   Clear
8:15 PM 8.6 °F 0.1 °F 1.4 °F 73% 30.22 in 10.0 mi WSW 4.6 mph - N/A   Clear
8:34 PM 8.6 °F 0.1 °F -0.4 °F 67% 30.23 in 10.0 mi SW 4.6 mph - N/A   Clear
8:55 PM 8.6 °F -1.3 °F -0.4 °F 67% 30.23 in 10.0 mi WSW 5.8 mph - N/A   Clear
9:15 PM 8.6 °F 2.0 °F -0.4 °F 67% 30.23 in 10.0 mi SW 3.5 mph - N/A   Clear
9:34 PM 8.6 °F 0.1 °F -0.4 °F 67% 30.23 in 10.0 mi SW 4.6 mph - N/A   Clear
9:54 PM 6.8 °F -2.0 °F -0.4 °F 72% 30.23 in 10.0 mi WSW 4.6 mph - N/A   Clear
10:14 PM 6.8 °F -0.1 °F -0.4 °F 72% 30.24 in 10.0 mi SW 3.5 mph - N/A   Clear
10:34 PM 6.8 °F -2.0 °F -0.4 °F 72% 30.24 in 10.0 mi SW 4.6 mph - N/A   Clear
10:54 PM 5.0 °F -2.1 °F -0.4 °F 78% 30.24 in 10.0 mi SW 3.5 mph - N/A   Clear
11:14 PM 5.0 °F -4.1 °F -0.4 °F 78% 30.24 in 10.0 mi SW 4.6 mph - N/A   Clear
11:34 PM 5.0 °F -2.1 °F -0.4 °F 78% 30.25 in 10.0 mi SW 3.5 mph - N/A   Clear
11:54 PM 8.6 °F 0.1 °F 1.4 °F 73% 30.26 in 10.0 mi SW 4.6 mph - N/A   Clear